Flag for Switzerland Weather past 2 weeks in Buchs, St. Gallen, Switzerland

Now
43 °F

Quite cool.


Feels Like: 37 °F
Forecast: 34 / 43 °F
Wind: 9 mph from Southeast

Location: Vaduz

Current Time: Mar 4, 2015 at 12:46:57 AM

Latest Report: Mar 4, 2015 at 12:00 AM


Visibility: N/A

Pressure: 30.25 "Hg

Humidity: 60%

Dew point: 30 °F

Location of BuchsLocation

Historic Weather in Buchs — Graph

°F

Buchs temperature yesterday

Maximum temperature yesterday: 51 °F (at 3:00 PM)
Minimum temperature yesterday: 37 °F (at 8:00 AM)
Average temperature yesterday: 44 °F

Past Weeks' High & Low Weather Summary

 TemperatureHumidityPressure
High54 °F (Feb 21, 2:00 PM)97% (Feb 17, 6:00 AM)30.74 "Hg (Feb 17, 6:00 AM)
Low27 °F (Feb 19, 9:00 AM)22% (Feb 20, 9:00 PM)29.44 "Hg (Feb 21, 1:00 PM)
Average39 °F69%30.09 "Hg
* Reported Feb 16 11:00 PM — Mar 3 11:00 PM, Buchs, Weather by CustomWeather, © 2015

Note: Actual official high and low records may vary slightly from our data, if they occured in-between our weather recording intervals... More about our weather records

Advertising

Buchs weather history for previous 24 hours

 ConditionsComfort  
Time TempWeatherWind HumidityBarometerVisibility
11:00 PM
Tue, Mar 3
43 °FQuite cool.8 mph62%30.25 "HgN/A
10:00 PM44 °FQuite cool.5 mph55%30.24 "HgN/A
9:00 PM44 °FQuite cool.7 mph54%30.23 "HgN/A
8:00 PM45 °FCool.6 mph50%30.22 "HgN/A
7:00 PM46 °FCool.5 mph47%30.22 "HgN/A
6:00 PM47 °FCool.7 mph48%30.19 "HgN/A
5:00 PM49 °FCool.6 mph43%30.19 "HgN/A
4:00 PM50 °FScattered clouds.6 mph40%30.18 "Hg7 mi
3:00 PM51 °FCool.8 mph32%30.19 "HgN/A
2:00 PM50 °FCool.8 mph39%30.21 "HgN/A
1:00 PM49 °FPartly sunny.8 mph47%30.24 "Hg7 mi
12:00 PM48 °FCool.8 mph48%30.27 "HgN/A
11:00 AM43 °FQuite cool.5 mph61%30.30 "HgN/A
10:00 AM40 °FPartly sunny.5 mph70%30.32 "Hg6 mi
9:00 AM39 °FChilly.6 mph75%30.32 "HgN/A
8:00 AM37 °FChilly.No wind77%30.32 "HgN/A
7:00 AM38 °FFog.3 mph70%30.29 "Hg3 mi
6:00 AM39 °FChilly.3 mph69%30.28 "HgN/A
5:00 AM39 °FChilly.1 mph61%30.27 "HgN/A
4:00 AM42 °FFog.9 mph49%30.24 "Hg3 mi
3:00 AM42 °FQuite cool.14 mph45%30.24 "HgN/A
2:00 AM42 °FQuite cool.17 mph45%30.24 "HgN/A
1:00 AM43 °FFog.12 mph43%30.24 "Hg3 mi
12:00 AM41 °FQuite cool.18 mph53%30.24 "HgN/A
Weather by CustomWeather, © 2015

See weather overviewHow to use our weather pages